ANA981 RJTT-RJFS

Flight info

Callsign ANA981
Flight time 1h 38m
Altitude 36000
Route NINOX Y28 ONDOC Y452 OOITA Y40 MILEP UGAMU SGE
Aircraft B738/M-SDE2E3FGHIRWXY/LB1

Departure

Time 2026-05-05 04:05
Airport Tokyo Haneda International Airport (RJTT)

Arrival

Time 2026-05-05 05:43
Airport Kyushu Saga International Airport (RJFS)
Time Latitude Longitude Altitude Speed Heading
2026-05-05 03:39 35.55759 139.78483 22 ft 0 kts 240°
2026-05-05 03:49 35.55764 139.78495 23 ft 4 kts 238°
2026-05-05 03:49 35.55779 139.78522 22 ft 4 kts 233°
2026-05-05 03:49 35.55791 139.78541 22 ft 4 kts 227°
2026-05-05 03:50 35.55805 139.78557 23 ft 4 kts 217°
2026-05-05 03:50 35.55827 139.78570 23 ft 4 kts 177°
2026-05-05 03:50 35.55839 139.78567 21 ft 1 kts 150°
2026-05-05 03:50 35.55840 139.78566 21 ft 0 kts 150°
2026-05-05 03:53 35.55819 139.78581 23 ft 7 kts 149°
2026-05-05 03:54 35.55754 139.78627 24 ft 14 kts 150°
2026-05-05 03:54 35.55676 139.78682 26 ft 11 kts 150°
2026-05-05 03:54 35.55653 139.78760 28 ft 11 kts 71°
2026-05-05 03:54 35.55697 139.78856 25 ft 12 kts 69°
2026-05-05 03:55 35.55659 139.78933 26 ft 12 kts 150°
2026-05-05 03:55 35.55576 139.78991 25 ft 16 kts 150°
2026-05-05 03:55 35.55470 139.79067 28 ft 20 kts 150°
2026-05-05 03:55 35.55349 139.79153 27 ft 20 kts 150°
2026-05-05 03:56 35.55232 139.79235 27 ft 19 kts 150°
2026-05-05 03:56 35.55119 139.79315 25 ft 18 kts 150°
2026-05-05 03:56 35.55007 139.79395 28 ft 18 kts 150°
2026-05-05 03:56 35.54892 139.79477 27 ft 20 kts 150°
2026-05-05 03:57 35.54767 139.79566 29 ft 23 kts 150°
2026-05-05 03:57 35.54624 139.79667 23 ft 24 kts 150°
2026-05-05 03:57 35.54485 139.79766 21 ft 23 kts 150°
2026-05-05 03:57 35.54351 139.79861 19 ft 22 kts 150°
2026-05-05 03:58 35.54220 139.79954 21 ft 21 kts 150°
2026-05-05 03:58 35.54092 139.80045 19 ft 21 kts 150°
2026-05-05 03:58 35.53968 139.80133 19 ft 19 kts 150°
2026-05-05 03:58 35.53876 139.80197 20 ft 12 kts 157°
2026-05-05 03:59 35.53791 139.80173 20 ft 15 kts 177°
2026-05-05 03:59 35.53673 139.80192 23 ft 16 kts 173°
2026-05-05 03:59 35.53592 139.80235 27 ft 13 kts 150°
2026-05-05 03:59 35.53505 139.80297 28 ft 16 kts 150°
2026-05-05 04:00 35.53403 139.80369 32 ft 19 kts 150°
2026-05-05 04:00 35.53282 139.80455 39 ft 20 kts 150°
2026-05-05 04:00 35.53162 139.80540 44 ft 20 kts 150°
2026-05-05 04:00 35.53072 139.80604 44 ft 11 kts 150°
2026-05-05 04:01 35.53008 139.80580 46 ft 11 kts 222°
2026-05-05 04:01 35.52944 139.80509 46 ft 15 kts 223°
2026-05-05 04:01 35.52855 139.80408 46 ft 20 kts 222°
2026-05-05 04:01 35.52751 139.80291 48 ft 20 kts 223°
2026-05-05 04:02 35.52653 139.80181 48 ft 15 kts 223°
2026-05-05 04:02 35.52593 139.80135 51 ft 10 kts 175°
2026-05-05 04:02 35.52536 139.80192 49 ft 12 kts 133°
2026-05-05 04:02 35.52480 139.80266 47 ft 9 kts 133°
2026-05-05 04:03 35.52437 139.80322 50 ft 9 kts 133°
2026-05-05 04:03 35.52425 139.80372 53 ft 6 kts 55°
2026-05-05 04:03 35.52440 139.80392 51 ft 0 kts 43°
2026-05-05 04:04 35.52448 139.80400 53 ft 6 kts 42°
2026-05-05 04:04 35.52654 139.80632 51 ft 78 kts 43°
2026-05-05 04:04 35.53228 139.81279 49 ft 143 kts 42°
2026-05-05 04:04 35.54054 139.82183 476 ft 162 kts 44°
2026-05-05 04:05 35.54892 139.83099 1364 ft 160 kts 43°
2026-05-05 04:05 35.55743 139.84041 2022 ft 172 kts 44°
2026-05-05 04:05 35.56376 139.85393 2346 ft 198 kts 82°
2026-05-05 04:05 35.56185 139.87119 2667 ft 215 kts 107°
2026-05-05 04:06 35.55706 139.88946 2973 ft 232 kts 108°
2026-05-05 04:06 35.55215 139.90841 3512 ft 240 kts 107°
2026-05-05 04:06 35.54644 139.92841 3857 ft 260 kts 119°
2026-05-05 04:06 35.53397 139.94491 4468 ft 271 kts 149°
2026-05-05 04:07 35.51598 139.95090 5229 ft 272 kts 185°
2026-05-05 04:07 35.49735 139.94713 6096 ft 272 kts 194°
2026-05-05 04:07 35.47876 139.94202 6864 ft 276 kts 200°
2026-05-05 04:07 35.46238 139.93010 7579 ft 275 kts 228°
2026-05-05 04:08 35.45221 139.91056 8374 ft 273 kts 252°
2026-05-05 04:08 35.44794 139.88789 9175 ft 274 kts 262°
2026-05-05 04:08 35.44497 139.86468 9935 ft 278 kts 263°
2026-05-05 04:08 35.44206 139.84086 10432 ft 291 kts 263°
2026-05-05 04:09 35.43882 139.81526 10620 ft 315 kts 263°
2026-05-05 04:09 35.43518 139.78780 10781 ft 336 kts 262°
2026-05-05 04:09 35.43128 139.75899 10930 ft 356 kts 262°
2026-05-05 04:09 35.42822 139.72821 11069 ft 372 kts 271°
2026-05-05 04:10 35.43274 139.69677 11475 ft 378 kts 287°
2026-05-05 04:10 35.44095 139.66616 12131 ft 379 kts 289°
2026-05-05 04:10 35.44934 139.63539 12803 ft 380 kts 288°
2026-05-05 04:10 35.45764 139.60457 13456 ft 382 kts 288°
2026-05-05 04:11 35.46585 139.57355 14077 ft 384 kts 288°
2026-05-05 04:11 35.47405 139.54207 14646 ft 386 kts 287°
2026-05-05 04:11 35.48216 139.51058 15214 ft 388 kts 286°
2026-05-05 04:11 35.48666 139.47783 15778 ft 391 kts 274°
2026-05-05 04:12 35.48767 139.44476 16398 ft 392 kts 272°
2026-05-05 04:12 35.48866 139.41127 17003 ft 394 kts 272°
2026-05-05 04:12 35.48977 139.37757 17571 ft 396 kts 272°
2026-05-05 04:12 35.49100 139.34393 18121 ft 398 kts 272°
2026-05-05 04:13 35.49232 139.30965 18662 ft 400 kts 272°
2026-05-05 04:13 35.49367 139.27548 19201 ft 400 kts 272°
2026-05-05 04:13 35.49501 139.24172 19672 ft 402 kts 272°
2026-05-05 04:13 35.49639 139.20679 20093 ft 405 kts 272°
2026-05-05 04:14 35.49771 139.17261 20541 ft 407 kts 271°
2026-05-05 04:14 35.49785 139.13782 21044 ft 409 kts 268°
2026-05-05 04:14 35.49640 139.10298 21545 ft 410 kts 266°
2026-05-05 04:14 35.49436 139.06788 22001 ft 412 kts 265°
2026-05-05 04:15 35.49224 139.03281 22455 ft 413 kts 265°
2026-05-05 04:15 35.49022 138.99774 22864 ft 414 kts 265°
2026-05-05 04:15 35.48831 138.96224 23241 ft 416 kts 265°
2026-05-05 04:15 35.48650 138.92679 23604 ft 417 kts 266°
2026-05-05 04:16 35.48473 138.89110 23944 ft 419 kts 265°
2026-05-05 04:16 35.48297 138.85539 24230 ft 420 kts 265°
2026-05-05 04:16 35.48179 138.83166 24531 ft 419 kts 265°
2026-05-05 04:16 35.47943 138.78420 25104 ft 416 kts 265°
2026-05-05 04:17 35.47825 138.76065 25328 ft 415 kts 265°
2026-05-05 04:17 35.47646 138.72520 25629 ft 416 kts 264°
2026-05-05 04:17 35.47468 138.69028 25919 ft 415 kts 264°
2026-05-05 04:17 35.47286 138.65487 26181 ft 415 kts 264°
2026-05-05 04:18 35.47104 138.61956 26435 ft 415 kts 264°
2026-05-05 04:18 35.46922 138.58434 26768 ft 412 kts 264°
2026-05-05 04:18 35.46741 138.54944 27136 ft 408 kts 264°
2026-05-05 04:18 35.46559 138.51479 27509 ft 405 kts 263°
2026-05-05 04:19 35.46380 138.48048 27872 ft 402 kts 263°
2026-05-05 04:19 35.46200 138.44634 28258 ft 399 kts 263°
2026-05-05 04:19 35.46021 138.41254 28675 ft 395 kts 263°
2026-05-05 04:19 35.45842 138.37897 29093 ft 393 kts 263°
2026-05-05 04:20 35.45663 138.34557 29501 ft 391 kts 262°
2026-05-05 04:20 35.45484 138.31249 30092 ft 386 kts 262°
2026-05-05 04:20 35.45308 138.27986 30688 ft 379 kts 262°
2026-05-05 04:20 35.45133 138.24774 31007 ft 377 kts 262°
2026-05-05 04:21 35.44957 138.21558 31206 ft 379 kts 262°
2026-05-05 04:21 35.44779 138.18329 31376 ft 379 kts 262°
2026-05-05 04:21 35.44599 138.15105 31718 ft 376 kts 262°
2026-05-05 04:21 35.44418 138.11970 32094 ft 371 kts 261°
2026-05-05 04:22 35.44233 138.08817 32390 ft 371 kts 261°
2026-05-05 04:22 35.44045 138.05656 32624 ft 371 kts 261°
2026-05-05 04:22 35.43858 138.02515 32936 ft 368 kts 261°
2026-05-05 04:22 35.43673 137.99398 33292 ft 366 kts 261°
2026-05-05 04:23 35.43487 137.96280 33625 ft 364 kts 261°
2026-05-05 04:23 35.43295 137.93193 33870 ft 362 kts 261°
2026-05-05 04:23 35.43112 137.90109 34070 ft 363 kts 261°
2026-05-05 04:23 35.42929 137.87022 34322 ft 362 kts 261°
2026-05-05 04:24 35.42744 137.83946 34562 ft 361 kts 261°
2026-05-05 04:24 35.42558 137.80876 34761 ft 361 kts 261°
2026-05-05 04:24 35.42371 137.77843 34949 ft 361 kts 261°
2026-05-05 04:25 35.41935 137.71719 35293 ft 361 kts 260°
2026-05-05 04:25 35.41707 137.68651 35484 ft 360 kts 260°
2026-05-05 04:25 35.41481 137.65594 35688 ft 359 kts 260°
2026-05-05 04:25 35.41258 137.62544 35892 ft 359 kts 260°
2026-05-05 04:26 35.41035 137.59496 36037 ft 359 kts 260°
2026-05-05 04:26 35.40228 137.53485 36188 ft 355 kts 253°
2026-05-05 04:27 35.38945 137.47642 36170 ft 357 kts 252°
2026-05-05 04:27 35.37640 137.41742 36175 ft 357 kts 252°
2026-05-05 04:28 35.36362 137.35916 36175 ft 355 kts 252°
2026-05-05 04:28 35.35082 137.30075 36183 ft 355 kts 252°
2026-05-05 04:29 35.33800 137.24230 36170 ft 355 kts 252°
2026-05-05 04:29 35.32515 137.18384 36173 ft 355 kts 252°
2026-05-05 04:30 35.31237 137.12585 36166 ft 354 kts 252°
2026-05-05 04:30 35.29935 137.06730 36171 ft 354 kts 252°
2026-05-05 04:31 35.28634 137.00959 36165 ft 354 kts 252°
2026-05-05 04:31 35.27321 136.95137 36173 ft 354 kts 252°
2026-05-05 04:32 35.26012 136.89334 36168 ft 354 kts 252°
2026-05-05 04:32 35.24713 136.83526 36172 ft 353 kts 252°
2026-05-05 04:33 35.23486 136.78043 36169 ft 353 kts 252°
2026-05-05 04:33 35.22191 136.72270 36170 ft 353 kts 252°
2026-05-05 04:34 35.20884 136.66461 36168 ft 354 kts 252°
2026-05-05 04:34 35.19575 136.60658 36154 ft 353 kts 252°
2026-05-05 04:35 35.18270 136.54888 36178 ft 352 kts 252°
2026-05-05 04:35 35.16967 136.49143 36167 ft 354 kts 252°
2026-05-05 04:36 35.15657 136.43373 36227 ft 347 kts 252°
2026-05-05 04:36 35.14343 136.37605 36170 ft 355 kts 252°
2026-05-05 04:37 35.13013 136.31776 36173 ft 356 kts 252°
2026-05-05 04:37 35.11674 136.25929 36168 ft 358 kts 252°
2026-05-05 04:38 35.10330 136.20063 36160 ft 358 kts 252°
2026-05-05 04:38 35.08994 136.14242 36166 ft 358 kts 252°
2026-05-05 04:39 35.07651 136.08398 36161 ft 357 kts 252°
2026-05-05 04:39 35.06310 136.02579 36165 ft 355 kts 252°
2026-05-05 04:40 35.04975 135.96788 36173 ft 354 kts 252°
2026-05-05 04:40 35.03642 135.91002 36168 ft 353 kts 252°
2026-05-05 04:41 35.02316 135.85263 36162 ft 353 kts 252°
2026-05-05 04:41 35.01087 135.79477 36177 ft 353 kts 254°
2026-05-05 04:42 35.00023 135.73623 36165 ft 353 kts 254°
2026-05-05 04:42 34.98967 135.67797 36158 ft 352 kts 254°
2026-05-05 04:43 34.97901 135.61992 36163 ft 350 kts 254°
2026-05-05 04:43 34.96837 135.56248 36164 ft 350 kts 254°
2026-05-05 04:44 34.95768 135.50497 36159 ft 350 kts 254°
2026-05-05 04:44 34.94690 135.44707 36172 ft 350 kts 254°
2026-05-05 04:45 34.93607 135.38910 36158 ft 350 kts 254°
2026-05-05 04:45 34.92511 135.33139 36163 ft 349 kts 253°
2026-05-05 04:46 34.91386 135.27411 36161 ft 349 kts 253°
2026-05-05 04:46 34.90254 135.21662 36168 ft 348 kts 253°
2026-05-05 04:47 34.89123 135.15918 36170 ft 348 kts 253°
2026-05-05 04:47 34.88000 135.10222 36175 ft 348 kts 253°
2026-05-05 04:48 34.86869 135.04494 36179 ft 347 kts 253°
2026-05-05 04:48 34.85737 134.98772 36183 ft 347 kts 253°
2026-05-05 04:49 34.84656 134.93048 36181 ft 347 kts 254°
2026-05-05 04:49 34.83585 134.87325 36185 ft 347 kts 254°
2026-05-05 04:50 34.82507 134.81600 36187 ft 346 kts 254°
2026-05-05 04:50 34.81435 134.75937 36199 ft 344 kts 254°
2026-05-05 04:51 34.80358 134.70254 36187 ft 344 kts 254°
2026-05-05 04:51 34.79276 134.64578 36198 ft 344 kts 254°
2026-05-05 04:52 34.78186 134.58909 36200 ft 344 kts 253°
2026-05-05 04:52 34.77101 134.53286 36197 ft 344 kts 253°
2026-05-05 04:53 34.76007 134.47622 36200 ft 343 kts 253°
2026-05-05 04:53 34.74918 134.41974 36195 ft 343 kts 254°
2026-05-05 04:54 34.73841 134.36323 36189 ft 343 kts 254°
2026-05-05 04:54 34.72764 134.30688 36200 ft 342 kts 253°
2026-05-05 04:55 34.71688 134.25081 36197 ft 342 kts 253°
2026-05-05 04:55 34.70603 134.19454 36189 ft 342 kts 253°
2026-05-05 04:56 34.69506 134.13821 36199 ft 342 kts 253°
2026-05-05 04:56 34.68408 134.08188 36194 ft 342 kts 253°
2026-05-05 04:57 34.67305 134.02567 36190 ft 341 kts 252°
2026-05-05 04:57 34.65805 133.97160 36180 ft 340 kts 248°
2026-05-05 04:58 34.64142 133.91793 36185 ft 339 kts 248°
2026-05-05 04:58 34.62484 133.86425 36185 ft 339 kts 248°
2026-05-05 04:59 34.60836 133.81072 36190 ft 338 kts 248°
2026-05-05 04:59 34.59186 133.75711 36187 ft 338 kts 248°
2026-05-05 05:00 34.57538 133.70366 36190 ft 338 kts 248°
2026-05-05 05:00 34.55887 133.65018 36188 ft 338 kts 248°
2026-05-05 05:01 34.54221 133.59686 36190 ft 338 kts 247°
2026-05-05 05:01 34.52491 133.54434 36189 ft 337 kts 246°
2026-05-05 05:02 34.50742 133.49147 36202 ft 337 kts 246°
2026-05-05 05:02 34.49003 133.43867 36193 ft 337 kts 246°
2026-05-05 05:03 34.47551 133.39468 36180 ft 337 kts 246°
2026-05-05 05:03 34.45851 133.34170 36196 ft 338 kts 247°
2026-05-05 05:04 34.44186 133.28852 36198 ft 338 kts 247°
2026-05-05 05:04 34.42509 133.23522 36180 ft 339 kts 247°
2026-05-05 05:05 34.40824 133.18196 36193 ft 339 kts 247°
2026-05-05 05:05 34.39128 133.12864 36176 ft 339 kts 247°
2026-05-05 05:06 34.37421 133.07521 36198 ft 340 kts 247°
2026-05-05 05:06 34.35726 133.02216 36185 ft 340 kts 247°
2026-05-05 05:07 34.34018 132.96879 36184 ft 340 kts 247°
2026-05-05 05:07 34.32307 132.91539 36177 ft 340 kts 247°
2026-05-05 05:08 34.30597 132.86196 36183 ft 341 kts 247°
2026-05-05 05:08 34.28902 132.80826 36183 ft 342 kts 247°
2026-05-05 05:09 34.27206 132.75456 36192 ft 342 kts 247°
2026-05-05 05:09 34.25504 132.70084 36172 ft 343 kts 247°
2026-05-05 05:10 34.23798 132.64708 36192 ft 343 kts 247°
2026-05-05 05:10 34.22051 132.59366 36181 ft 343 kts 243°
2026-05-05 05:11 34.19576 132.54435 36189 ft 344 kts 237°
2026-05-05 05:11 34.16402 132.50055 36197 ft 347 kts 230°
2026-05-05 05:12 34.12977 132.45920 36176 ft 348 kts 230°
2026-05-05 05:12 34.09567 132.41791 36189 ft 348 kts 230°
2026-05-05 05:13 34.06151 132.37637 36176 ft 349 kts 230°
2026-05-05 05:13 34.02722 132.33491 36170 ft 349 kts 230°
2026-05-05 05:14 33.99282 132.29353 36187 ft 349 kts 230°
2026-05-05 05:14 33.95840 132.25214 36187 ft 350 kts 230°
2026-05-05 05:15 33.92287 132.21192 36191 ft 354 kts 224°
2026-05-05 05:15 33.88120 132.17955 36193 ft 365 kts 216°
2026-05-05 05:16 33.83548 132.15265 36187 ft 366 kts 215°
2026-05-05 05:16 33.78962 132.12590 36179 ft 366 kts 215°
2026-05-05 05:17 33.74386 132.09897 36179 ft 366 kts 215°
2026-05-05 05:17 33.69830 132.07216 36180 ft 367 kts 215°
2026-05-05 05:18 33.65231 132.04544 36174 ft 368 kts 214°
2026-05-05 05:18 33.60614 132.01869 36175 ft 368 kts 214°
2026-05-05 05:19 33.55995 131.99191 36169 ft 369 kts 214°
2026-05-05 05:19 33.51373 131.96515 36166 ft 369 kts 214°
2026-05-05 05:20 33.46841 131.93672 36161 ft 363 kts 220°
2026-05-05 05:20 33.42890 131.90057 36161 ft 359 kts 225°
2026-05-05 05:21 33.38970 131.86321 36157 ft 360 kts 224°
2026-05-05 05:21 33.35040 131.82599 36156 ft 360 kts 224°
2026-05-05 05:22 33.31102 131.78879 36159 ft 360 kts 224°
2026-05-05 05:22 33.27211 131.75211 36154 ft 354 kts 224°
2026-05-05 05:23 33.23521 131.71394 36141 ft 347 kts 231°
2026-05-05 05:23 33.21928 131.69179 35567 ft 351 kts 234°
2026-05-05 05:23 33.20497 131.66823 34872 ft 349 kts 239°
2026-05-05 05:23 33.19310 131.64291 34198 ft 350 kts 241°
2026-05-05 05:24 33.18180 131.61712 33402 ft 351 kts 242°
2026-05-05 05:24 33.17067 131.59146 32617 ft 353 kts 242°
2026-05-05 05:24 33.15940 131.56557 31868 ft 352 kts 242°
2026-05-05 05:24 33.14798 131.53955 31076 ft 354 kts 242°
2026-05-05 05:25 33.13646 131.51342 30278 ft 356 kts 242°
2026-05-05 05:25 33.12486 131.48720 29328 ft 358 kts 242°
2026-05-05 05:25 33.11301 131.46105 28455 ft 359 kts 242°
2026-05-05 05:25 33.10097 131.43481 27527 ft 362 kts 242°
2026-05-05 05:26 33.08886 131.40843 26604 ft 363 kts 242°
2026-05-05 05:26 33.07671 131.38191 25943 ft 368 kts 242°
2026-05-05 05:26 33.06416 131.35439 25248 ft 387 kts 242°
2026-05-05 05:26 33.05153 131.32627 24533 ft 389 kts 242°
2026-05-05 05:27 33.03885 131.29795 23828 ft 384 kts 243°
2026-05-05 05:27 33.02632 131.27001 23021 ft 380 kts 243°
2026-05-05 05:27 33.00342 131.21878 21805 ft 368 kts 243°
2026-05-05 05:28 32.99154 131.19193 21107 ft 365 kts 244°
2026-05-05 05:28 32.97969 131.16517 20444 ft 363 kts 244°
2026-05-05 05:28 32.96795 131.13875 19792 ft 361 kts 244°
2026-05-05 05:28 32.95604 131.11204 19127 ft 371 kts 244°
2026-05-05 05:29 32.94372 131.08445 18416 ft 382 kts 244°
2026-05-05 05:29 32.93124 131.05656 17619 ft 381 kts 244°
2026-05-05 05:29 32.91887 131.02896 16893 ft 376 kts 244°
2026-05-05 05:29 32.90661 131.00161 16210 ft 372 kts 244°
2026-05-05 05:30 32.89464 130.97489 15529 ft 367 kts 244°
2026-05-05 05:30 32.88270 130.94824 14939 ft 362 kts 244°
2026-05-05 05:30 32.87087 130.92188 14298 ft 360 kts 244°
2026-05-05 05:30 32.85910 130.89561 13512 ft 359 kts 242°
2026-05-05 05:31 32.84761 130.86919 12884 ft 362 kts 246°
2026-05-05 05:31 32.84013 130.84063 12223 ft 365 kts 257°
2026-05-05 05:31 32.83716 130.81020 11526 ft 376 kts 268°
2026-05-05 05:31 32.83891 130.77897 11134 ft 373 kts 274°
2026-05-05 05:32 32.84156 130.74891 10961 ft 358 kts 274°
2026-05-05 05:32 32.84408 130.71999 10799 ft 345 kts 274°
2026-05-05 05:32 32.84639 130.69205 10652 ft 333 kts 274°
2026-05-05 05:32 32.84846 130.66546 10507 ft 322 kts 273°
2026-05-05 05:33 32.85044 130.63935 10366 ft 311 kts 273°
2026-05-05 05:33 32.85235 130.61414 10246 ft 301 kts 273°
2026-05-05 05:33 32.85417 130.58976 10131 ft 292 kts 273°
2026-05-05 05:33 32.85595 130.56600 10004 ft 285 kts 273°
2026-05-05 05:34 32.85770 130.54253 9674 ft 285 kts 273°
2026-05-05 05:34 32.85943 130.51914 9394 ft 284 kts 273°
2026-05-05 05:34 32.86118 130.49565 9064 ft 284 kts 273°
2026-05-05 05:34 32.86290 130.47236 8765 ft 282 kts 273°
2026-05-05 05:35 32.86483 130.44927 8465 ft 280 kts 274°
2026-05-05 05:35 32.86688 130.42623 8165 ft 279 kts 274°
2026-05-05 05:35 32.86890 130.40334 7872 ft 277 kts 274°
2026-05-05 05:35 32.87090 130.38059 7581 ft 276 kts 274°
2026-05-05 05:36 32.87280 130.35817 7289 ft 275 kts 273°
2026-05-05 05:36 32.87448 130.33561 6997 ft 274 kts 273°
2026-05-05 05:36 32.87613 130.31296 6706 ft 273 kts 272°
2026-05-05 05:36 32.87862 130.29061 6420 ft 276 kts 285°
2026-05-05 05:37 32.88833 130.27090 6052 ft 281 kts 314°
2026-05-05 05:37 32.90492 130.25910 5769 ft 280 kts 345°
2026-05-05 05:37 32.92412 130.25786 5506 ft 274 kts
2026-05-05 05:37 32.94263 130.26132 5228 ft 265 kts 10°
2026-05-05 05:38 32.96055 130.26510 4924 ft 259 kts 11°
2026-05-05 05:38 32.97818 130.26882 4584 ft 255 kts 10°
2026-05-05 05:38 32.99536 130.27228 4285 ft 245 kts
2026-05-05 05:38 33.01181 130.27551 3963 ft 234 kts
2026-05-05 05:39 33.02754 130.27856 3671 ft 221 kts
2026-05-05 05:39 33.04212 130.27744 3371 ft 203 kts 337°
2026-05-05 05:39 33.05377 130.26972 3130 ft 188 kts 322°
2026-05-05 05:39 33.06406 130.26083 2877 ft 177 kts 321°
2026-05-05 05:40 33.07375 130.25236 2649 ft 169 kts 320°
2026-05-05 05:40 33.08325 130.24410 2464 ft 166 kts 321°
2026-05-05 05:40 33.09230 130.23628 2276 ft 158 kts 321°
2026-05-05 05:40 33.10103 130.22875 2054 ft 154 kts 320°
2026-05-05 05:41 33.11008 130.22168 1840 ft 156 kts 330°
2026-05-05 05:41 33.12053 130.21819 1618 ft 157 kts 353°
2026-05-05 05:41 33.13147 130.21918 1397 ft 160 kts 13°
2026-05-05 05:41 33.14169 130.22436 1194 ft 159 kts 32°
2026-05-05 05:42 33.14995 130.23265 981 ft 157 kts 51°
2026-05-05 05:42 33.15545 130.24385 764 ft 157 kts 72°
2026-05-05 05:42 33.15636 130.25667 562 ft 153 kts 99°
2026-05-05 05:42 33.15463 130.26915 387 ft 147 kts 103°
2026-05-05 05:43 33.15272 130.28071 197 ft 143 kts 103°
2026-05-05 05:43 33.15107 130.29226 35 ft 141 kts 102°
2026-05-05 05:43 33.14963 130.30261 11 ft 101 kts 99°
2026-05-05 05:43 33.14884 130.30840 12 ft 46 kts 99°
2026-05-05 05:44 33.14844 130.31129 10 ft 15 kts 99°
2026-05-05 05:44 33.14861 130.31230 11 ft 11 kts 85°
2026-05-05 05:44 33.14833 130.31253 10 ft 4 kts 196°
2026-05-05 05:44 33.14830 130.31216 11 ft 8 kts 280°
2026-05-05 05:45 33.14847 130.31108 10 ft 18 kts 280°
2026-05-05 05:45 33.14872 130.30932 11 ft 25 kts 279°
2026-05-05 05:45 33.14903 130.30703 13 ft 30 kts 279°
2026-05-05 05:45 33.14937 130.30451 13 ft 31 kts 279°
2026-05-05 05:46 33.14962 130.30266 11 ft 12 kts 279°
2026-05-05 05:46 33.15020 130.30228 11 ft 11 kts 12°
2026-05-05 05:46 33.15094 130.30245 11 ft 11 kts
2026-05-05 05:46 33.15166 130.30259 11 ft 9 kts
2026-05-05 05:47 33.15221 130.30298 11 ft 9 kts 18°
2026-05-05 05:47 33.15259 130.30307 11 ft 4 kts
2026-05-05 05:47 33.15272 130.30309 11 ft 1 kts